When you browse on this site, cookies collect data to enhance your experience and personalize the content and advertising you see.
Visit our Privacy Policy to learn more. By continuing to use the site, you agree to this use of cookies and data.
  • In Hungary
  • List of Countries
  • For 7 days
  • Water Temperature
  • Weather Map
  • News
  • Weather Widgets
  • user-avatar
    Login

    Hourly Weather Skripkovo

    Today, 15 September, Sunday

    Time Temperature Precipitation Wind Pressure Humidity
    00:00 +7°C° 0 mm 3 mps 742 mmHg 88%
    01:00 +5°C° 0 mm 3 mps 742 mmHg 89%
    02:00 +5°C° 0 mm 3 mps 742 mmHg 89%
    03:00 +4°C° 0 mm 3 mps 742 mmHg 91%
    04:00 +4°C° 0 mm 3 mps 742 mmHg 93%
    05:00 +4°C° 0 mm 3 mps 742 mmHg 95%
    06:00 +5°C° 0 mm 3 mps 742 mmHg 91%
    07:00 +5°C° 0 mm 3 mps 742 mmHg 87%
    08:00 +7°C° 0 mm 3 mps 742 mmHg 84%
    09:00 +8°C° 0 mm 3 mps 742 mmHg 77%
    10:00 +10°C° 0 mm 3 mps 741 mmHg 71%
    11:00 +11°C° 0 mm 3 mps 741 mmHg 65%
    12:00 +11°C° 0 mm 4 mps 740 mmHg 64%
    13:00 +11°C° 0 mm 4 mps 739 mmHg 63%
    14:00 +10°C° 0 mm 5 mps 739 mmHg 63%
    15:00 +9°C° 0.7 mm 5 mps 738 mmHg 73%
    16:00 +8°C° 0.7 mm 5 mps 736 mmHg 83%
    17:00 +7°C° 0.7 mm 5 mps 735 mmHg 93%
    18:00 +7°C° 0.8 mm 5 mps 734 mmHg 92%
    19:00 +7°C° 0.8 mm 6 mps 733 mmHg 92%
    20:00 +7°C° 0.8 mm 6 mps 732 mmHg 92%
    21:00 +7°C° 0.5 mm 6 mps 731 mmHg 92%
    22:00 +8°C° 0.5 mm 6 mps 730 mmHg 92%
    23:00 +8°C° 0.5 mm 6 mps 729 mmHg 92%

    Tomorrow, 16 September, Monday

    Time Temperature Precipitation Wind Pressure Humidity
    00:00 +8°C° 0.3 mm 5 mps 729 mmHg 92%
    01:00 +8°C° 0.3 mm 5 mps 729 mmHg 92%
    02:00 +8°C° 0.3 mm 5 mps 728 mmHg 92%
    03:00 +8°C° 0.1 mm 4 mps 728 mmHg 92%
    04:00 +8°C° 0.1 mm 4 mps 728 mmHg 92%
    05:00 +7°C° 0.1 mm 4 mps 727 mmHg 93%
    06:00 +8°C° 0.2 mm 5 mps 727 mmHg 90%
    07:00 +8°C° 0.2 mm 5 mps 727 mmHg 88%
    08:00 +9°C° 0.2 mm 6 mps 727 mmHg 86%
    09:00 +9°C° 0.3 mm 6 mps 727 mmHg 86%
    10:00 +9°C° 0.3 mm 6 mps 727 mmHg 86%
    11:00 +8°C° 0.3 mm 6 mps 727 mmHg 87%
    12:00 +9°C° 0.2 mm 6 mps 727 mmHg 85%
    13:00 +10°C° 0.2 mm 6 mps 727 mmHg 83%
    14:00 +10°C° 0.2 mm 6 mps 727 mmHg 81%
    15:00 +10°C° 0.2 mm 6 mps 727 mmHg 82%
    16:00 +10°C° 0.2 mm 5 mps 726 mmHg 83%
    17:00 +9°C° 0.2 mm 5 mps 726 mmHg 84%
    18:00 +9°C° 0 mm 5 mps 726 mmHg 85%
    19:00 +8°C° 0 mm 5 mps 726 mmHg 87%
    20:00 +7°C° 0 mm 5 mps 726 mmHg 88%
    21:00 +8°C° 0 mm 5 mps 726 mmHg 88%
    22:00 +8°C° 0 mm 5 mps 726 mmHg 88%
    23:00 +8°C° 0 mm 5 mps 726 mmHg 88%

    Day after tomorrow, 17 September, Tuesday

    Time Temperature Precipitation Wind Pressure Humidity
    00:00 +7°C° 0.3 mm 5 mps 726 mmHg 89%
    01:00 +7°C° 0.3 mm 5 mps 726 mmHg 90%
    02:00 +7°C° 0.3 mm 5 mps 726 mmHg 91%
    03:00 +7°C° 0.2 mm 4 mps 726 mmHg 91%
    04:00 +7°C° 0.2 mm 4 mps 726 mmHg 91%
    05:00 +6°C° 0.2 mm 4 mps 727 mmHg 91%
    06:00 +7°C° 0.2 mm 4 mps 727 mmHg 91%
    07:00 +7°C° 0.2 mm 4 mps 727 mmHg 90%
    08:00 +7°C° 0.2 mm 4 mps 727 mmHg 90%
    09:00 +7°C° 0.3 mm 4 mps 727 mmHg 89%
    10:00 +7°C° 0.3 mm 4 mps 727 mmHg 89%
    11:00 +7°C° 0.3 mm 4 mps 727 mmHg 88%
    12:00 +8°C° 0.5 mm 4 mps 727 mmHg 86%
    13:00 +8°C° 0.5 mm 4 mps 727 mmHg 85%
    14:00 +10°C° 0.5 mm 4 mps 727 mmHg 83%
    15:00 +8°C° 0.5 mm 4 mps 727 mmHg 85%
    16:00 +9°C° 0.5 mm 3 mps 727 mmHg 87%
    17:00 +8°C° 0.5 mm 2 mps 727 mmHg 90%
    18:00 +7°C° 0 mm 2 mps 727 mmHg 92%
    19:00 +6°C° 0 mm 2 mps 727 mmHg 94%
    20:00 +5°C° 0 mm 2 mps 727 mmHg 96%
    21:00 +5°C° 0 mm 2 mps 727 mmHg 96%
    22:00 +5°C° 0 mm 2 mps 727 mmHg 96%
    23:00 +4°C° 0 mm 2 mps 727 mmHg 96%

    18 September, Wednesday

    Time Temperature Precipitation Wind Pressure Humidity
    00:00 +4°C° 0 mm 2 mps 727 mmHg 96%
    01:00 +5°C° 0 mm 1 mps 727 mmHg 96%
    02:00 +4°C° 0 mm 1 mps 727 mmHg 96%
    03:00 +4°C° 0 mm 1 mps 727 mmHg 96%
    04:00 +5°C° 0 mm 1 mps 727 mmHg 96%
    05:00 +5°C° 0 mm 1 mps 727 mmHg 96%
    06:00 +6°C° 0 mm 1 mps 727 mmHg 93%
    07:00 +6°C° 0 mm 2 mps 727 mmHg 91%
    08:00 +6°C° 0 mm 2 mps 727 mmHg 89%
    09:00 +7°C° 0.1 mm 2 mps 728 mmHg 85%
    10:00 +8°C° 0.1 mm 2 mps 728 mmHg 82%
    11:00 +9°C° 0.1 mm 2 mps 728 mmHg 78%
    12:00 +9°C° 0.4 mm 2 mps 728 mmHg 77%
    13:00 +10°C° 0.4 mm 2 mps 729 mmHg 76%
    14:00 +10°C° 0.4 mm 2 mps 729 mmHg 76%
    15:00 +9°C° 0.3 mm 2 mps 729 mmHg 80%
    16:00 +9°C° 0.3 mm 2 mps 730 mmHg 84%
    17:00 +8°C° 0.3 mm 2 mps 730 mmHg 88%
    18:00 +7°C° 0 mm 2 mps 731 mmHg 91%
    19:00 +6°C° 0 mm 2 mps 732 mmHg 93%
    20:00 +5°C° 0 mm 2 mps 732 mmHg 95%
    21:00 +5°C° 0 mm 2 mps 733 mmHg 96%
    22:00 +5°C° 0 mm 2 mps 733 mmHg 96%
    23:00 +4°C° 0 mm 2 mps 734 mmHg 97%

    19 September, Thursday

    Time Temperature Precipitation Wind Pressure Humidity
    00:00 +4°C° 0 mm 2 mps 734 mmHg 97%
    01:00 +3°C° 0 mm 2 mps 735 mmHg 97%
    02:00 +3°C° 0 mm 2 mps 735 mmHg 97%
    03:00 +2°C° 0 mm 2 mps 736 mmHg 97%
    04:00 +2°C° 0 mm 2 mps 736 mmHg 97%
    05:00 +1°C° 0 mm 2 mps 736 mmHg 98%
    06:00 +2°C° 0 mm 2 mps 737 mmHg 94%
    07:00 +3°C° 0 mm 2 mps 737 mmHg 91%
    08:00 +4°C° 0 mm 2 mps 738 mmHg 88%
    09:00 +5°C° 0.1 mm 2 mps 738 mmHg 81%
    10:00 +6°C° 0.1 mm 2 mps 739 mmHg 73%
    11:00 +7°C° 0.1 mm 2 mps 739 mmHg 65%
    12:00 +8°C° 0.1 mm 2 mps 739 mmHg 63%
    13:00 +8°C° 0.1 mm 2 mps 739 mmHg 60%
    14:00 +8°C° 0.1 mm 2 mps 739 mmHg 57%
    15:00 +7°C° 0 mm 2 mps 739 mmHg 61%
    16:00 +8°C° 0 mm 1 mps 739 mmHg 65%
    17:00 +7°C° 0 mm 1 mps 739 mmHg 69%
    18:00 +6°C° 0 mm 1 mps 740 mmHg 73%
    19:00 +5°C° 0 mm 1 mps 740 mmHg 78%
    20:00 +4°C° 0 mm 1 mps 740 mmHg 82%
    21:00 +4°C° 0 mm 1 mps 740 mmHg 84%
    22:00 +3°C° 0 mm 1 mps 741 mmHg 85%
    23:00 +3°C° 0 mm 1 mps 741 mmHg 87%

    20 September, Friday

    Time Temperature Precipitation Wind Pressure Humidity
    00:00 +2°C° 0 mm 1 mps 741 mmHg 88%
    01:00 +2°C° 0 mm 1 mps 741 mmHg 89%
    02:00 -1°C° 0 mm 2 mps 741 mmHg 90%
    03:00 -1°C° 0 mm 2 mps 741 mmHg 91%
    04:00 -1°C° 0 mm 2 mps 741 mmHg 91%
    05:00 -2°C° 0 mm 2 mps 741 mmHg 92%
    06:00 +1°C° 0 mm 2 mps 741 mmHg 84%
    07:00 +2°C° 0 mm 2 mps 742 mmHg 77%
    08:00 +3°C° 0 mm 3 mps 742 mmHg 69%
    09:00 +4°C° 0 mm 3 mps 742 mmHg 63%
    10:00 +5°C° 0 mm 3 mps 742 mmHg 58%
    11:00 +6°C° 0 mm 4 mps 742 mmHg 52%
    12:00 +7°C° 0.1 mm 4 mps 742 mmHg 53%
    13:00 +7°C° 0.1 mm 4 mps 742 mmHg 54%
    14:00 +7°C° 0.1 mm 4 mps 742 mmHg 55%
    15:00 +7°C° 0 mm 3 mps 742 mmHg 59%
    16:00 +5°C° 0 mm 3 mps 742 mmHg 63%
    17:00 +5°C° 0 mm 2 mps 742 mmHg 67%
    18:00 +4°C° 0 mm 2 mps 743 mmHg 72%
    19:00 +3°C° 0 mm 2 mps 743 mmHg 77%
    20:00 +1°C° 0 mm 2 mps 743 mmHg 81%
    21:00 +1°C° 0 mm 2 mps 743 mmHg 83%
    22:00 +1°C° 0 mm 2 mps 743 mmHg 85%
    23:00 +1°C° 0 mm 2 mps 743 mmHg 87%
    Show more